AirNav   Duncan Aviation - Near you to keep you flying
 
 584 users online  

D42 Springfield Municipal Airport
Springfield, Minnesota, USA

GOING TO SPRINGFIELD?


FAA INFORMATION EFFECTIVE 03 NOVEMBER 2022

Location

FAA Identifier: D42
Lat/Long: 44-13-51.8000N 094-59-56.1000W
44-13.863333N 094-59.935000W
44.2310556,-94.9989167
(estimated)
Elevation: 1073 ft. / 327.1 m (surveyed)
Variation: 02E (2015)
From city: 1 mile SW of SPRINGFIELD, MN
Time zone: UTC -6 (UTC -5 during Daylight Saving Time)
Zip code: 56087

Airport Operations

Airport use: Open to the public
Control tower: no
ARTCC: MINNEAPOLIS CENTER
FSS: PRINCETON FLIGHT SERVICE STATION
NOTAMs facility: PNM (NOTAM-D service available)
Attendance: UNATNDD
FOR SVC CALL 507-723-3500.
Wind indicator: lighted
Segmented circle: no
Lights: MIRL SS-SR, ACTVT MIRL RWY 13/31, REIL RWY 13/31, AND PAPI RWY 13/31 - CTAF.
Beacon: white-green (lighted land airport)
Operates sunset to sunrise.

Airport Communications

CTAF/UNICOM: 122.8
WX ASOS at RWF (19 nm N): 126.575 (507-644-3564)
WX AWOS-3 at MWM (20 nm S): 118.525 (507-831-1833)
  • APCH/DEP SVC PRVDD BY MINNEAPOLIS ARTCC ON FREQS 127.1/290.2 (REDWOOD FALLS RCAG).

Nearby radio navigation aids

VOR radial/distance  VOR name  Freq  Var
RWFr152/15.2REDWOOD FALLS VOR/DME113.3007E
MMLr105/37.8MARSHALL VOR/DME111.0005E

Airport Services

Fuel available: 100LL
100LL:SELF SERVE FUEL AVBL WITH CREDIT CARD 24 HRS.
Parking: hangars and tiedowns
Airframe service: NONE
Powerplant service: NONE
Bottled oxygen: NONE
Bulk oxygen: NONE

Runway Information

Runway 13/31

Dimensions: 3402 x 75 ft. / 1037 x 23 m
Surface: asphalt, in good condition
Weight bearing capacity: 
Single wheel: 12.0
Runway edge lights: medium intensity
NO CAUTION ZONE LIGHTING PRESENT FOR LAST HALF OF RWY IN BOTH DIRECTIONS
RUNWAY 13  RUNWAY 31
Latitude: 44-14.050798N44-13.676655N
Longitude: 095-00.225210W094-59.645990W
Elevation: 1070.5 ft.1067.4 ft.
Traffic pattern: rightleft
Runway heading: 130 magnetic, 132 true310 magnetic, 312 true
Markings: nonprecision, in good conditionnonprecision, in good condition
Visual slope indicator: 2-light PAPI on left (3.00 degrees glide path)2-light PAPI on left (3.00 degrees glide path)
Runway end identifier lights: yesyes
Touchdown point: yes, no lightsyes, no lights
Obstructions: none
RWY 13 HAS 6 FT CROPS 85 FT FM THE RWY END AND 119 FT RIGHT.
19 ft. trees, 351 ft. from runway, 222 ft. left of centerline, 7:1 slope to clear

Airport Ownership and Management from official FAA records

Ownership: Publicly-owned
Owner: CITY OF SPRINGFIELD
2 E CENTRAL ST
SPRINGFIELD, MN 56087
Phone 507-723-3500
Manager: JOE STREMCHA
2 E CENTRAL ST
SPRINGFIELD, MN 56087
Phone 507-723-3500

Airport Operational Statistics

Aircraft based on the field: 6
Single engine airplanes: 4
Multi engine airplanes: 1
Jet airplanes: 1
    
Aircraft operations: avg 46/week *
83% local general aviation
17% transient general aviation
* for 12-month period ending 30 April 2017

Additional Remarks

ULTRALIGHT TRAFFIC ON & INVOF ARPT.
FOR CD CTC MINNEAPOLIS ARTCC AT 651-463-5588.

Instrument Procedures

NOTE: All procedures below are presented as PDF files. If you need a reader for these files, you should download the free Adobe Reader.

NOT FOR NAVIGATION. Please procure official charts for flight.
FAA instrument procedures published for use from 03 November 2022 at 0901Z to 01 December 2022 at 0900Z.

 
IAPs - Instrument Approach Procedures
RNAV (GPS) RWY 13   download (207KB)
RNAV (GPS) RWY 31   download (189KB)
VOR RWY 13   download (183KB)
NOTE: Special Take-Off Minimums/Departure Procedures apply   download (152KB)

Other nearby airports with instrument procedures:

KRWF - Redwood Falls Municipal Airport (19 nm N)
KMWM - Windom Municipal Airport (20 nm S)
KULM - New Ulm Municipal Airport (22 nm E)
KJYG - St James Municipal Airport (24 nm SE)
KTKC - Tracy Municipal Airport (26 nm W)
 
Loc | Ops | Rwys | IFR | FBO | Links
Com | Nav | Svcs | Stats | Notes
Area around D42 (Springfield Municipal Airport)
 
Road maps at: MapQuest Bing Google
 
Aerial photo
WARNING: Photo may not be current or correct
Aerial photo of D42 (Springfield Municipal Airport)
Photo by Mark Griffith
Photo taken 14-Jul-2011
at 3000 feet from a Piper Archer II. Looking north.

Do you have a better or more recent aerial photo of Springfield Municipal Airport that you would like to share? If so, please send us your photo.

 
Sectional chart

 
Airport diagram
CAUTION: Diagram may not be current
Diagram of D42 (Springfield Municipal Airport)
 
Airport distance calculator
Flying to Springfield Municipal Airport? Find the distance to fly.

From to D42

Sunrise and sunset
Times for 01-Dec-2022
 Local
(UTC-6)
 Zulu
(UTC)
Morning civil twilight07:0413:04
Sunrise07:3613:36
Sunset16:4222:42
Evening civil twilight17:1423:14

Current date and time
Zulu (UTC)  01-Dec-2022 06:36:46
Local (UTC-6)  01-Dec-2022 00:36:46
 
METAR
KRWF 
19nm N 
010553Z AUTO 00000KT 10SM CLR M15/M18 A3030 RMK AO2 SLP283 T11501178 11094 21156 410611156 55000
KMWM 
20nm S 
010615Z AUTO 18003KT 10SM CLR M13/M15 A3029 RMK AO2
KJYG 
24nm SE 
010615Z AUTO 20008KT 10SM M16/M18 A3032 RMK AO2 TSNO
KTKC 
26nm W 
010615Z AUTO 21008KT 10SM CLR M11/M12 A3027 RMK AO2
KOVL 
33nm N 
010615Z AUTO 14003KT 10SM CLR M14/M16 A3028 RMK AO2
KMJQ 
36nm S 
010615Z AUTO 22007KT 10SM SCT110 M13/M15 A3030 RMK AO2
KDVP 
37nm SW 
010613Z AUTO 19005KT 10SM CLR M11/M14 A3026 RMK AO2 T11151143
KMML 
37nm W 
010556Z AUTO 20009KT 10SM CLR M13/M16 A3028 RMK AO2 SLP282 T11281156 11094 21139 410561139 56001 FZRANO
TAF
KRWF 
19nm N 
010520Z 0106/0206 16004KT P6SM SCT250 FM011300 15013G21KT P6SM BKN250 FM011800 17017G30KT P6SM SKC FM020000 16013KT P6SM FEW250
NOTAMs
Click for the latest NOTAMs
NOTAMs are issued by the DoD/FAA and will open in a separate window not controlled by AirNav.

 

 
 

FBO, Fuel Providers, and Aircraft Ground Support

  
 Business Name 
 
 Contact 
 
 Services / Description 
 
Fuel Prices
 
Comments
  
Springfield Municipal Airport UNICOM 122.80
507-723-3512
[web site]
[email]
Welcome to the City of Springfield!

We are a dynamic growing community open for business. Our Municipal Airport offers first class facilities for pilots, free tiedowns, hangar space for both based and visiting aircraft, a modern self serve fuel farm and courtesy transportation.

Stop in today to see the "D42 difference!"
More info and photos of Springfield Municipal Airport
World Fuel Services
100LL
SS $7.36 
 Updated 11-Aug-2022
 
   write
SS=Self service
Update Fuel Prices
 

Would you like to see your business listed on this page?

 If your business provides an interesting product or service to pilots, flight crews, aircraft, or users of the Springfield Municipal Airport, you should consider listing it here.  To start the listing process, click on the button below
 
Add a business
 

Other Pages about Springfield Municipal Airport

Update a link
 
Copyright © AirNav, LLC. All rights reserved. Privacy Policy  Contact